Погода в Вероне

США     40°49′54″N   74°14′45″W
темп.,
°C
ветер,
м/с
пор.,
м/с
влажн.,
%
обл.,
%
осадки,
мм/ч
давл.,
гПа
погр.,
м
14 августа, вс
вс1423:00+22юз23405 0.0 1019203
02:00+20зюз245546 0.0 1018212
05:00+19з1264100 0.0 1018133
08:00+20с1154100 0.0 1018236
11:00+26ю223591 0.0 10181540
14:00+29ююв43295 0.0 10162536
17:00+27ююв543711 0.0 10151208
20:00+24ююв484951 0.0 1016719
15 августа, пн
пн1523:00+23ю385138 0.0 1017599
02:00+21ююз2653100 0.0 1016373
05:00+20з125772 0.0 1016128
08:00+22зюз0152100 0.0 1016295
11:00+26ююв2239100 0.0 10161250
14:00+28юв543275 0.0 10152146
17:00+26юв55380 0.0 10151141
20:00+23ююв355012 0.0 1016595
16 августа, вт
вт1623:00+22юв235520 0.0 1017400
02:00+21св115991 0.0 101738
05:00+21св2460100 0.0 1016362
08:00+21св4655100 0.0 1018724
11:00+25всв463989 0.0 10181480
14:00+27в563185 0.0 10172131
17:00+26ююв554298 0.0 10161506
20:00+23юв355765 0.0 1017761
17 августа, ср
ср1723:00+22юв24605 0.0 1017483
02:00+21св256511 0.1 1017468
05:00+19ссв37798 0.2 1018482
08:00+19св47685 0.2 1019574
11:00+24всв464826 0.0 10181594
14:00+27в343651 0.0 10172358
17:00+26в134061 0.0 10151307
20:00+24юв345483 0.1 1016541
18 августа, чт
чт1823:00+21юв23714 0.4 1016261
02:00+20юз117911 2.2 101629
05:00+19сз11852 0.2 101627
08:00+20зсз11762 0.2 1017194
11:00+26юз22432 0.0 10161247
14:00+29ююз2333100 0.0 10142628
17:00+27ююв234299 0.0 10141011
20:00+25юз4849100 0.0 1015691